#timestamp,LO_Frequency,Hit,StdDev 
1634018415.7,286046995.0,N
1634018435.6,286046996.4,N
1634018455.4,286046996.0,N
1634018475.3,286046997.8,N
1634018495.1,286046999.5,N
1634018496.0,286046999.5,N
1634018515.8,286046994.9,N
1634018535.7,286046997.3,N
1634018555.5,286046997.1,N
1634018575.3,286046997.5,N
1634018595.2,286046997.4,N
1634018615.0,286046998.3,N
1634018615.9,286046998.3,N
1634018635.8,286046999.6,N
1634018655.6,286046998.0,N
1634018675.4,286046999.0,N
1634018695.3,286047001.1,N
1634018715.1,286046996.6,N
1634018735.8,286046999.6,N
1634018755.7,286046996.9,N
1634018775.5,286046999.2,N
1634018795.4,286046995.6,N
1634018815.2,286046997.6,N
1634018835.0,286046997.0,N
1634018835.9,286046997.0,N
1634018855.8,286046999.1,N
1634018875.6,286046998.4,N
1634018895.5,286046997.2,N
1634018915.3,286046996.5,N
1634018935.1,286046999.0,N
1634018955.9,286047001.2,N
1634018975.7,286047000.7,N
1634018995.5,286047000.3,N
1634019015.4,286047002.4,N
1634019035.2,286046999.7,N
1634019055.1,286047000.9,N
1634019056.0,286047000.9,N
1634019075.8,286046997.0,N
1634019095.6,286046999.2,N
1634019115.5,286046997.4,N
1634019135.3,286046998.0,N
1634019155.1,286046995.4,N
1634019175.9,286046994.9,N
1634019195.7,286046995.1,N
1634019215.6,286046995.9,N
1634019235.4,286046994.5,N
1634019255.2,286046995.6,N
1634019275.1,286046996.8,N
1634019276.0,286046996.8,N
1634019295.8,286046995.4,N
1634019315.6,286046996.7,N
1634019335.5,286046998.3,N
1634019355.3,286047000.9,N
1634019375.2,286046999.5,N
1634019395.9,286046999.6,N
1634019415.7,286046996.7,N
1634019435.6,286046997.1,N
1634019455.4,286046998.2,N
1634019475.2,286046997.1,N
1634019495.1,286046999.3,N
1634019496.0,286046999.3,N
1634019515.8,286046999.5,N
1634019535.7,286046999.3,N
1634019555.5,286046997.0,N
1634019575.3,286046997.4,N
1634019595.2,286046997.4,N
1634019615.0,286046995.4,N
1634019615.9,286046995.4,N
1634019635.7,286046997.0,N
1634019655.6,286046995.9,N
1634019675.4,286046994.2,Y
1634019695.3,286046999.2,P
1634019715.1,286046999.1,N
1634019735.8,286046999.6,N
1634019755.7,286046999.2,N
1634019775.5,286046997.2,Y
1634019795.4,286047002.0,P
1634019815.2,286047002.5,N
1634019835.0,286047001.5,N
1634019835.9,286047001.5,N
1634019855.8,286047001.9,N
1634019875.6,286047000.4,N
1634019895.4,286046998.6,N
1634019915.3,286047002.4,N
1634019935.1,286047003.2,N
1634019955.9,286047004.1,N
1634019975.7,286047004.0,N
1634019995.5,286047005.4,Y
1634020015.4,286047000.3,P
1634020035.2,286047000.0,N
1634020055.1,286047002.2,N
1634020056.0,286047002.2,N
1634020075.8,286047002.2,N
1634020095.6,286046999.7,N
1634020115.5,286046999.7,N
1634020135.3,286047000.4,N
1634020155.1,286047000.4,N
1634020175.9,286047011.9,Y
1634020195.7,286047000.5,P
1634020215.6,286047000.2,N
1634020235.4,286047002.2,P
1634020255.2,286047001.4,N
1634020275.1,286047003.8,Y
1634020276.0,286047003.8,P
1634020295.8,286047000.2,N
1634020315.7,286046999.1,N
1634020335.5,286046995.4,N
1634020355.3,286046994.4,N
1634020375.2,286046995.7,N
1634020395.0,286046996.9,N
1634020395.9,286046996.9,N
1634020415.8,286046998.6,N
1634020435.6,286046998.8,N
1634020455.4,286047001.0,N
1634020475.3,286047000.5,N
1634020495.1,286047000.3,N
1634020496.0,286047000.3,N
1634020515.8,286047002.0,N
1634020535.7,286047001.9,N
1634020555.5,286047001.0,N
1634020575.4,286047001.2,N
1634020595.2,286047000.6,N
1634020615.0,286047000.4,N
1634020615.9,286047000.4,N
1634020635.8,286046998.1,N
1634020655.6,286046997.2,N
1634020675.4,286046997.6,N
1634020695.3,286046996.6,N
1634020715.1,286046996.9,N
1634020735.9,286046996.6,N
1634020755.7,286046997.5,N
1634020775.5,286046999.5,N
1634020795.4,286046998.6,N
1634020815.2,286046996.7,N
1634020835.0,286046999.5,N
1634020835.9,286046999.5,N
1634020855.8,286046995.4,N
1634020875.6,286046996.3,N
1634020895.5,286046995.6,N
1634020915.3,286046994.9,N
1634020935.1,286046998.2,N
1634020955.9,286046999.2,N
1634020975.7,286047001.0,N
1634020995.5,286047000.3,N
1634021015.4,286046999.9,N
1634021035.2,286047000.0,N
1634021055.1,286047002.2,N
1634021056.0,286047002.2,N
1634021075.8,286047002.8,N
1634021095.6,286046999.4,N
1634021115.5,286047001.1,N
1634021135.3,286046998.6,N
1634021155.1,286047000.8,N
1634021175.9,286047000.9,N
1634021195.7,286047002.5,N
1634021215.6,286047000.1,N
1634021235.4,286047000.4,N
1634021255.2,286047001.2,N
1634021275.1,286046997.4,N
1634021276.0,286046997.4,N
1634021295.8,286046997.0,N
1634021315.7,286046996.7,N
1634021335.5,286046996.7,N
1634021355.3,286046997.7,N
1634021375.2,286046996.2,N
1634021395.0,286046993.3,N
1634021395.9,286046993.3,N
1634021415.7,286046994.0,N
1634021435.6,286046995.6,N
1634021455.4,286046995.5,N
1634021475.3,286046997.8,N
1634021495.1,286046996.3,N
1634021496.0,286046996.3,N
1634021515.8,286046995.6,N
1634021535.7,286046995.6,N
1634021555.5,286046998.0,N
1634021575.3,286046996.9,N
1634021595.2,286046996.2,N
1634021615.0,286046997.6,N
1634021615.9,286046997.6,N
1634021635.8,286046996.0,N
1634021655.6,286046992.5,Y
1634021675.4,286046997.1,P
1634021695.3,286046997.0,P
1634021715.1,286046996.6,P
1634021735.9,286046997.1,Y
1634021755.7,286046998.1,P
1634021775.5,286047000.3,N
1634021795.4,286047000.1,N
1634021815.2,286047002.2,N
1634021835.1,286047002.1,N
1634021836.0,286047002.1,N
1634021855.8,286047000.0,N
1634021875.6,286047000.1,N
1634021895.5,286046998.4,N
1634021915.3,286047004.3,N
1634021935.1,286047000.4,N
1634021955.9,286047000.6,N
1634021975.7,286047001.9,N
1634021995.6,286047001.6,N
